Вернуться в каталог

QIANFAN-68

АктивенСвязьPO
NORAD 62798·PAYLOAD·🇨🇳 China

Запущен Jan 23, 2025 с Taiyuan Satellite Launch Center

Loading…

Ближайшие Пролёты (ближайшие 24 часа)

TLE

СвежийSource: Space-Track

Эпоха: Sep 14, 2026, 13:34 UTC

1 62798U 25016P   26257.56562940  .00000040  00000-0  43801-4 0  9999
2 62798  88.9665  74.4548 0013205 266.5259  93.4382 13.51021679 84482

Отслеживайте QIANFAN-68 в реальном времени с AllMySat

Download on the App Store